Powrót do katalogu

SIRION PATHFINDER-2

AktywnyNaukaSSO
NORAD 43759·PAYLOAD·🇺🇸 United States

Wystrzelony Dec 3, 2018 z Vandenberg Space Force Base

Loading…

Następne Przeloty (najbliższe 24 godziny)

TLE

ŚwieżeSource: Space-Track

Epoka: Sep 14, 2026, 02:09 UTC

1 43759U 18099B   26257.08989207  .00003669  00000-0  19880-3 0  9993
2 43759  97.4166 304.0329 0008454   3.0415 357.0867 15.15189398426084

Śledź SIRION PATHFINDER-2 w czasie rzeczywistym z AllMySat

Download on the App Store